map of PRG home
Great Circle Mapper logo
PRG - Airport
Location
City:  Prague, Czech Republic
Near (Alt.):Praha
Name:Ruzyne
ICAO / IATA:LKPR / PRG

Details
Type:Airport (Aerodrome, Airfield)
Use:Public/Civil, International (customs port of entry)
Latitude:5006'03"N (50.100833)
Longitude:1415'36"E (14.260000)
Datum:other
Elevation:1247 ft (380 m)
Variation:3.5E (WMM2015 magnetic declination)
Runways:3
Longest:12189 × 148 ft (3715 × 45 m), paved

Time
Time Zone:UTC+1 (DST+2)
Local Time:

Weather
METAR:LKPR 181730Z 22020KT 9999 FEW014 09/06 Q1012 NOSIG
TAF:LKPR 181100Z 1812/1918 23017KT 9999 SCT010 BKN040
TEMPO 1812/1918 24020G34KT PROB30
TEMPO 1905/1914 25026G44KT
TEMPO 1812/1822 BKN010 PROB30
TEMPO 1817/1822 8000 -RA BKN008
TEMPO 1916/1918 8000 -RA BKN008

Related Locations
Nearby:
Farthest:CHT: 11769 mi / 18940 km
Waitangi [Tuuta], Chatham Islands, NZ

Find:

   beyond  
but within

Other Information
Maps:
NOTAMs:
Links:
Sources:

  
flag of Czech Republic
flag of Prague
  

Sectional Chart

Flight Planning
at skyvector.com

Satellite Image

Google Maps Satellite View

 

Copyright © 2004-2014 Karl L. Swartz. All rights reserved.
The Great Circle Mapper name and logo are trademarks of the Great Circle Mapper.
All other trademarks mentioned herein belong to their respective owners.
Please see credits for attibutions and further copyright information.

  Follow gcmap on Facebook Follow gcmap on Twitter

hCard Microformat

Geo Microformat